Other Public Products
Issued by NWS Charleston, SC

Current Version | Previous Version | Text Only | Print | Product List | Glossary Off
Versions: 1 2 3 4 5 6 7 8 9 10 11 12 13 14 15 16 17 18 19 20 21 22 23 24 25 26 27 28 29 30 31 32 33 34 35 36 37 38 39 40 41 42 43 44 45 46 47 48 49 50
246 FPUS82 KCHS 191527 OPUCHS TEST...KCHS/KSAV Gateway Observations...TEST National Weather Service Charleston SC 1000 AM EST SUN NOV 19 2017 NOTE: "fair" indicates few or no clouds below 12,000 feet with no significant weather and/or obstructions to visibility. SCZ050-WAZ558-NCZ071-TXZ119-213-PAZ071-DCZ001-FLZ074-172-MI076- NYZ176-178-MAZ016-IL014-TNZ027-NJZ106-GAZ044-MD014-191600- ...Gateway Observations for Charleston International... CITY SKY/WX TMP DP RH WIND PRES REMARKS Chas Airport PTSUNNY 61 49 64 NW15 29.86R Seattle CLOUDY 41 32 70 S5 29.98F Charlotte MOSUNNY 54 34 46 NW13 29.89R Dallas DFW MOSUNNY 49 36 61 NW7 30.38R Dallas Love MOSUNNY 48 35 60 NW5 30.40R Philladelphia PTSUNNY 51 32 48 NW31G43 29.55R Wash National PTSUNNY 51 34 52 NW20G33 29.71R Baltimore MOSUNNY 50 33 52 W26G38 29.65R Miami SUNNY 77 62 59 W5 29.99S Detroit LGT SNOW 36 31 82 W13G22 29.83R WCI 27 Newark PTSUNNY 51 35 54 W22G37 29.42R Laguardia PTSUNNY 53 36 52 W28G36 29.38R J F K PTSUNNY 53 40 61 W29G40 29.39R Boston Logan CLOUDY 58 56 93 S16 29.14S Ft. Lauderdale SUNNY 77 64 64 W6 29.98S Chicago O`Hare MOSUNNY 31 19 61 W16 30.01R WCI 20 Chicago Midway MOSUNNY 31 20 63 NW15G22 30.03R WCI 20 Houston Bush MOSUNNY 55 39 54 N14 30.35R Houston Hobby MOSUNNY 55 37 50 N14 30.33R Nashville CLOUDY 41 28 60 NW10G20 30.15R Atlanta MOSUNNY 48 34 58 NW17G23 30.03R $$ GAZ044-118-TXZ119-213-NCZ071-DCZ001-MDZ014-506-PAZ021-071-NJZ106- NYZ176-178-MAZ106-OHZ011-021-055-MIZ076-KYZ091-ILZ014-INZ047- MNZ060-ONZ431-191600- ...Gateway Observations for Savannah International... CITY SKY/WX TMP DP RH WIND PRES REMARKS Savannah Arpt MOSUNNY 58 44 60 NW18G25 29.93R Atlanta MOSUNNY 48 34 58 NW17G23 30.03R Charlotte MOSUNNY 54 34 46 NW13 29.89R Dallas DFW MOSUNNY 49 36 61 NW7 30.38R Houston Bush MOSUNNY 55 39 54 N14 30.35R Wash National PTSUNNY 51 34 52 NW20G33 29.71R Wash Dulles PTSUNNY 48 33 56 W29G40 29.70R Baltimore MOSUNNY 50 33 52 W26G38 29.65R Philadelphia PTSUNNY 51 32 48 NW31G43 29.55R Newark PTSUNNY 51 35 54 W22G37 29.42R Laguardia PTSUNNY 53 36 52 W28G36 29.38R J F K PTSUNNY 53 40 61 W29G40 29.39R Boston CLOUDY 58 56 93 S16 29.14S Pittsburg CLOUDY 37 32 82 W12 29.78R WCI 29 Akron CLOUDY 37 28 70 W16G22 29.81R WCI 28 Cleveland CLOUDY 37 30 75 W13 29.84R WCI 29 Cincinnati CLOUDY 38 32 79 W15G21 30.00R WCI 29 Columbus CLOUDY 38 34 85 W16G23 29.92R WCI 29 Detroit LGT SNOW 36 31 82 W13G22 29.83R WCI 27 Chicago O`Hare MOSUNNY 31 19 61 W16 30.01R WCI 20 Minneapolis MOSUNNY 21 13 71 VRB5 30.08S WCI 15 Indianapolis PTSUNNY 34 26 72 W16 30.05R WCI 24 Toronto Canada MOSUNNY 39 27 60 NW23G30 29.60R WCI 29 $$

USA.gov is the U.S. government's official web portal to all federal, state and local government web resources and services.